Regional Weather Roundup
Issued by NWS

Home | Current Version | Previous Version | Graphics & Text | Print | Product List | Glossary On
Versions: 1 2 3 4 5 6 7 8 9 10 11 12 13 14 15 16 17 18 19 20 21 22 23 24 25 26 27 28 29 30 31 32 33 34 35 36 37 38 39 40 41 42 43 44 45 46 47 48 49 50
000
ASUS43 KLOT 271610
RWRIL

ILLINOIS REGIONAL WEATHER ROUNDUP
NATIONAL WEATHER SERVICE CHICAGO/ROMEOVILLE IL
1000 AM CST FRI FEB 27 2015

NOTE: "FAIR" INDICATES FEW OR NO CLOUDS BELOW 12,000 FEET WITH NO
SIGNIFICANT WEATHER AND/OR OBSTRUCTIONS TO VISIBILITY.

* THESE STATIONS ARE NOT UNDER NWS QUALITY CONTROL. THEY ALSO MAY NOT
  REPORT WEATHER SUCH AS PRECIPITATION OR FOG.

ILZ001-002-007-009-015-016-024-271700-
NORTHWEST ILLINOIS

CITY           SKY/WX    TMP DP  RH WIND       PRES   REMARKS
MOLINE         NOT AVBL
STERLING*      SUNNY      1  -8  66 W5        30.64R WCI  -8
SAVANNA*       SUNNY     -3  -8  80 SE3       30.65R
$$

ILZ003-004-008-010-011-017-018-271700-
NORTH CENTRAL ILLINOIS

CITY           SKY/WX    TMP DP  RH WIND       PRES   REMARKS
ROCKFORD       SUNNY      5  -7  57 W5        30.62R WCI  -4
FREEPORT*      SUNNY     -1 -10  64 CALM      30.62R
ROCHELLE*      SUNNY     -6 -10  81 CALM      30.62R
DE KALB*       SUNNY      1  -8  65 NW6       30.59R WCI -10
PERU*          SUNNY      2  -6  66 W6        30.64R WCI  -9
$$

ILZ005-006-012>014-019>023-271700-
NORTHEAST ILLINOIS

CITY           SKY/WX    TMP DP  RH WIND       PRES   REMARKS
CHICAGO-OHARE  SUNNY      9  -5  53 W8        30.58R WCI  -3
CHICAGO-MIDWAY SUNNY     13  -3  49 W8        30.60R WCI   2
AURORA         NOT AVBL
LANSING*       SUNNY     11  -1  57 SW3       30.59S
JOLIET*        SUNNY      5  -7  57 W5        30.63R WCI  -4
WAUKEGAN       SUNNY     10  -6  48 NW7       30.56R WCI  -1
DUPAGE AIRPORT NOT AVBL
KANKAKEE*      SUNNY      2  -4  75 W8        30.64R WCI -12
WHEELING       NOT AVBL
MORRIS*        SUNNY      0  -7  74 W6        30.62R WCI -12
ROMEOVILLE*    SUNNY      7  -4  58 W5        30.60R WCI  -1
NORTHERLY ISL    N/A     15  -2  46 W12         N/A  WCI   2
$$

LMZ740>746-271700-
SOUTHERN LAKE MICHIGAN

STATION/POSITION SKY/WX   TEMP    WIND        PRES    VSBY  WAVE
                          AIR SEA DIR/SP/G                  HT/PER
                          (F)     (DEG/KT/KT) (MB)    (MI)  (FT/S)
WAUKEGAN HARBOR             9     270/  6/  8   N/A
HARRISON CRIB              11     260/ 10/ 13   N/A
BURNHAM HARBOR             15     250/  6/ 10   N/A
CALUMET HARBOR             12     270/  7/ 10 1034.5R
MICHIGAN CITY               9     210/ 10/ 12   N/A
$$

ILZ025>027-034>036-040-047-049-050-058-095>099-271700-
WEST-CENTRAL ILLINOIS

CITY           SKY/WX    TMP DP  RH WIND       PRES   REMARKS
QUINCY         SUNNY      1  -6  72 NW6       30.66F WCI -10
GALESBURG*     SUNNY     -3  -7  82 W6        30.66R WCI -15
MACOMB*        SUNNY     -1  -7  77 NW6       30.69S WCI -13
JACKSONVILLE*  SUNNY      2  -6  68 W7        30.67F WCI -10
PITTSFIELD*    SUNNY      4  -4  68 NW5       30.67F WCI  -5
$$

ILZ028>032-037-038-041>044-048-051>054-059>061-271700-
CENTRAL ILLINOIS

CITY           SKY/WX    TMP DP  RH WIND       PRES   REMARKS
PONTIAC        SUNNY      1  -6  73 W3        30.65R
BLOOMINGTON    SUNNY      6  -3  66 S7        30.63R WCI  -6
DECATUR        SUNNY      5  -3  69 VRB3      30.65R
PEORIA         SUNNY      5  -5  63 CALM      30.67R
LACON*         SUNNY      3  -8  60 CALM      30.65R
LINCOLN*       SUNNY      7  -2  66 CALM      30.70R
SPRINGFIELD    NOT AVBL
TAYLORVILLE    SUNNY      3  -6  66 SW5       30.67S WCI  -6
$$

ILZ033-039-045-046-055>057-062-063-271700-
EAST-CENTRAL ILLINOIS

CITY           SKY/WX    TMP DP  RH WIND       PRES   REMARKS
CHAMPAIGN      SUNNY      2  -4  76 W7        30.63R WCI -11
DANVILLE*      SUNNY      7  -3  64 CALM      30.61R
RANTOUL*       SUNNY      6  -2  70 W6        30.63R WCI  -5
MATTOON        SUNNY      4  -4  69 NW6       30.64R WCI  -7
PARIS*         SUNNY      3  -4  75 W3        30.66R
$$

ILZ079-100>102-271700-
SOUTHWEST ILLINOIS

CITY           SKY/WX    TMP DP  RH WIND       PRES   REMARKS
ALTON          SUNNY      9  -6  52 W6        30.68  WCI  -1
BELLEVILLE     SUNNY     13  -1  55 NW6       30.67F WCI   3
CAHOKIA*       SUNNY     12  -1  56 N6        30.69F WCI   3
SPARTA*        SUNNY     11   1  63 N5        30.67F WCI   3
$$

ILZ064>066-069>071-074>076-080>082-084>086-088>090-092>094-271700-
SOUTH-CENTRAL ILLINOIS

CITY           SKY/WX    TMP DP  RH WIND       PRES   REMARKS
CARBONDALE     SUNNY     14   3  61 NE6       30.66F WCI   5
CAIRO*         SUNNY     18   7  63 NE9       30.66F WCI   7
EFFINGHAM*     SUNNY      7  -5  56 W6        30.68R WCI  -3
MARION         SUNNY     14   5  67 N12       30.66F WCI   0
MT. VERNON     SUNNY     12   1  62 NW6       30.67S WCI   3
CENTRALIA*     SUNNY     10  -1  63 N3        30.67S
SALEM*         SUNNY      9  -1  63 CALM      30.67S
METROPOLIS*    SUNNY     17   9  70 N6        30.63F WCI   8
$$

ILZ067-068-072-073-078-083-087-091-271700-
SOUTHEAST ILLINOIS

CITY           SKY/WX    TMP DP  RH WIND       PRES   REMARKS
LAWRENCEVILLE  SUNNY     14   5  67 NW7       30.67R WCI   4
FLORA*         SUNNY      6  -2  69 NW6       30.68S WCI  -5
FAIRFIELD*     SUNNY     10   1  66 N3        30.67S
HARRISBURG*    SUNNY     14   6  71 N6        30.68F WCI   5
ROBINSON*      SUNNY     11   1  64 NW3       30.69R
CARMI*         SUNNY     15   9  76 NW6       30.67S WCI   6
$$

ABBREVIATIONS USED IN REMARKS
   TC - TEMPERATURE IN CELSIUS
  WCI - WIND CHILL INDEX
   HX - HEAT INDEX
  VSB - VISIBILITY
$$



USA.gov is the U.S. government's official web portal to all federal, state and local government web resources and services.